EXS406R LEMG-EGSS

Flight info

Callsign EXS406R
Flight time 2h 21m
Altitude 34000
Route BLN DCT MORAL DCT BEXID DCT VTB DCT RBO N867 BLV DCT BISKA P87 BELEN DCT DIDIG DCT MOKOR UN873 OLEBA DCT ROGPU DCT DIKRO UM185 TELTU
Aircraft B738/M-SDE2E3FGHIRWXY/LB1

Departure

Time 2026-05-04 22:03
Airport Málaga-Costa del Sol Airport (LEMG)

Arrival

Time 2026-05-05 00:24
Airport London Stansted Airport (EGSS)
Time Latitude Longitude Altitude Speed Heading
2026-05-04 21:29 36.67347 -4.49131 41 ft 0 kts 116°
2026-05-04 21:49 36.67349 -4.49139 39 ft 3 kts 117°
2026-05-04 21:49 36.67360 -4.49161 41 ft 3 kts 126°
2026-05-04 21:49 36.67373 -4.49179 41 ft 3 kts 153°
2026-05-04 21:49 36.67388 -4.49183 38 ft 2 kts 204°
2026-05-04 21:50 36.67405 -4.49171 38 ft 3 kts 220°
2026-05-04 21:50 36.67416 -4.49160 38 ft 0 kts 221°
2026-05-04 21:53 36.67411 -4.49166 41 ft 3 kts 221°
2026-05-04 21:53 36.67376 -4.49204 41 ft 7 kts 221°
2026-05-04 21:53 36.67348 -4.49255 41 ft 7 kts 264°
2026-05-04 21:53 36.67363 -4.49311 38 ft 7 kts 323°
2026-05-04 21:54 36.67404 -4.49357 41 ft 10 kts 311°
2026-05-04 21:54 36.67468 -4.49447 41 ft 16 kts 312°
2026-05-04 21:54 36.67544 -4.49547 41 ft 16 kts 311°
2026-05-04 21:54 36.67615 -4.49646 41 ft 15 kts 311°
2026-05-04 21:55 36.67683 -4.49742 41 ft 14 kts 311°
2026-05-04 21:55 36.67741 -4.49824 41 ft 9 kts 311°
2026-05-04 21:55 36.67792 -4.49850 41 ft 8 kts 17°
2026-05-04 21:55 36.67840 -4.49806 41 ft 10 kts 41°
2026-05-04 21:56 36.67905 -4.49734 41 ft 14 kts 41°
2026-05-04 21:56 36.67976 -4.49655 41 ft 13 kts 41°
2026-05-04 21:56 36.68044 -4.49580 41 ft 13 kts 41°
2026-05-04 21:56 36.68110 -4.49507 41 ft 13 kts 41°
2026-05-04 21:57 36.68175 -4.49436 41 ft 12 kts 41°
2026-05-04 21:57 36.68238 -4.49365 39 ft 13 kts 42°
2026-05-04 21:57 36.68282 -4.49304 39 ft 9 kts 70°
2026-05-04 21:57 36.68269 -4.49232 37 ft 9 kts 116°
2026-05-04 21:58 36.68241 -4.49166 39 ft 8 kts 117°
2026-05-04 21:58 36.68215 -4.49104 39 ft 8 kts 118°
2026-05-04 21:58 36.68183 -4.49028 39 ft 12 kts 117°
2026-05-04 21:58 36.68142 -4.48931 38 ft 13 kts 117°
2026-05-04 21:59 36.68103 -4.48837 38 ft 12 kts 117°
2026-05-04 21:59 36.68063 -4.48743 39 ft 12 kts 117°
2026-05-04 21:59 36.68025 -4.48653 39 ft 12 kts 117°
2026-05-04 21:59 36.67988 -4.48566 37 ft 11 kts 117°
2026-05-04 22:00 36.67953 -4.48481 39 ft 11 kts 117°
2026-05-04 22:00 36.67918 -4.48398 39 ft 11 kts 118°
2026-05-04 22:00 36.67884 -4.48318 38 ft 10 kts 118°
2026-05-04 22:00 36.67851 -4.48239 37 ft 10 kts 117°
2026-05-04 22:01 36.67819 -4.48163 36 ft 10 kts 117°
2026-05-04 22:01 36.67817 -4.48099 35 ft 8 kts 56°
2026-05-04 22:01 36.67863 -4.48060 35 ft 8 kts 27°
2026-05-04 22:01 36.67912 -4.48029 36 ft 8 kts 28°
2026-05-04 22:02 36.67932 -4.48018 36 ft 2 kts
2026-05-04 22:02 36.67946 -4.48030 36 ft 5 kts 315°
2026-05-04 22:02 36.68012 -4.48179 38 ft 50 kts 297°
2026-05-04 22:02 36.68287 -4.48836 42 ft 118 kts 297°
2026-05-04 22:03 36.68753 -4.49957 128 ft 165 kts 296°
2026-05-04 22:03 36.69278 -4.51218 934 ft 166 kts 300°
2026-05-04 22:03 36.69755 -4.52011 1416 ft 170 kts 312°
2026-05-04 22:03 36.70592 -4.53149 1988 ft 190 kts 313°
2026-05-04 22:04 36.71536 -4.54382 2581 ft 199 kts 314°
2026-05-04 22:04 36.72532 -4.55634 3169 ft 208 kts 315°
2026-05-04 22:04 36.73548 -4.56939 3856 ft 211 kts 314°
2026-05-04 22:04 36.74565 -4.58275 4511 ft 214 kts 314°
2026-05-04 22:05 36.75757 -4.59400 5129 ft 219 kts 336°
2026-05-04 22:05 36.77204 -4.60015 5780 ft 222 kts 342°
2026-05-04 22:05 36.78705 -4.60548 6410 ft 226 kts 343°
2026-05-04 22:05 36.80240 -4.61071 6968 ft 232 kts 348°
2026-05-04 22:06 36.81855 -4.60908 7492 ft 243 kts 20°
2026-05-04 22:06 36.83317 -4.59681 7804 ft 265 kts 39°
2026-05-04 22:06 36.84725 -4.58123 8372 ft 276 kts 39°
2026-05-04 22:06 36.86162 -4.56505 9101 ft 281 kts 39°
2026-05-04 22:07 36.87634 -4.54853 9806 ft 287 kts 39°
2026-05-04 22:07 36.89138 -4.53176 10464 ft 292 kts 38°
2026-05-04 22:07 36.90667 -4.51477 11181 ft 296 kts 38°
2026-05-04 22:07 36.92215 -4.49762 11898 ft 299 kts 38°
2026-05-04 22:08 36.93783 -4.48030 12610 ft 303 kts 38°
2026-05-04 22:08 36.95371 -4.46277 13315 ft 307 kts 37°
2026-05-04 22:08 36.96984 -4.44498 13996 ft 311 kts 37°
2026-05-04 22:08 36.98639 -4.42743 14608 ft 314 kts 32°
2026-05-04 22:09 37.00486 -4.41150 14810 ft 333 kts 28°
2026-05-04 22:09 37.02516 -4.39568 15000 ft 354 kts 27°
2026-05-04 22:09 37.04682 -4.37916 15164 ft 375 kts 27°
2026-05-04 22:09 37.06945 -4.36180 15528 ft 387 kts 28°
2026-05-04 22:10 37.09279 -4.34365 16139 ft 392 kts 28°
2026-05-04 22:10 37.11598 -4.32542 16820 ft 395 kts 28°
2026-05-04 22:10 37.13930 -4.30695 17497 ft 398 kts 28°
2026-05-04 22:10 37.16283 -4.28823 18111 ft 403 kts 28°
2026-05-04 22:11 37.18658 -4.26930 18664 ft 407 kts 28°
2026-05-04 22:11 37.21056 -4.25016 19231 ft 410 kts 28°
2026-05-04 22:11 37.23465 -4.23090 19789 ft 413 kts 28°
2026-05-04 22:11 37.25899 -4.21144 20324 ft 416 kts 28°
2026-05-04 22:12 37.28352 -4.19180 20843 ft 420 kts 28°
2026-05-04 22:12 37.30821 -4.17204 21383 ft 423 kts 28°
2026-05-04 22:12 37.33315 -4.15205 21897 ft 427 kts 28°
2026-05-04 22:12 37.35833 -4.13186 22419 ft 430 kts 28°
2026-05-04 22:13 37.38361 -4.11157 22916 ft 434 kts 28°
2026-05-04 22:13 37.40916 -4.09105 23403 ft 437 kts 27°
2026-05-04 22:13 37.43489 -4.07036 23855 ft 440 kts 28°
2026-05-04 22:13 37.46082 -4.04949 24242 ft 444 kts 27°
2026-05-04 22:14 37.48726 -4.02819 24640 ft 447 kts 27°
2026-05-04 22:14 37.51357 -4.00698 25041 ft 450 kts 27°
2026-05-04 22:14 37.54006 -3.98562 25416 ft 454 kts 27°
2026-05-04 22:14 37.56671 -3.96410 25777 ft 457 kts 27°
2026-05-04 22:15 37.59358 -3.94239 26164 ft 460 kts 27°
2026-05-04 22:15 37.62057 -3.92055 26548 ft 462 kts 27°
2026-05-04 22:15 37.64769 -3.89859 26890 ft 466 kts 27°
2026-05-04 22:15 37.67507 -3.87641 27233 ft 469 kts 27°
2026-05-04 22:16 37.70263 -3.85405 27562 ft 472 kts 27°
2026-05-04 22:16 37.73037 -3.83152 27936 ft 475 kts 27°
2026-05-04 22:16 37.75820 -3.80889 28338 ft 476 kts 27°
2026-05-04 22:16 37.78621 -3.78611 28599 ft 481 kts 27°
2026-05-04 22:17 37.81439 -3.76319 28897 ft 484 kts 27°
2026-05-04 22:17 37.84336 -3.74176 29198 ft 479 kts 17°
2026-05-04 22:17 37.87452 -3.72806 29547 ft 472 kts
2026-05-04 22:17 37.90599 -3.71679 30003 ft 470 kts
2026-05-04 22:18 37.93751 -3.70588 30404 ft 469 kts
2026-05-04 22:18 37.96882 -3.69478 30813 ft 467 kts
2026-05-04 22:18 38.00049 -3.68316 31186 ft 468 kts
2026-05-04 22:18 38.03172 -3.67140 31484 ft 469 kts
2026-05-04 22:19 38.06292 -3.65948 31825 ft 468 kts
2026-05-04 22:19 38.09411 -3.64752 32204 ft 467 kts
2026-05-04 22:19 38.12521 -3.63561 32588 ft 466 kts
2026-05-04 22:19 38.15631 -3.62427 32914 ft 462 kts
2026-05-04 22:20 38.18769 -3.61860 33204 ft 452 kts 356°
2026-05-04 22:20 38.21895 -3.61564 33564 ft 449 kts 354°
2026-05-04 22:20 38.25002 -3.61345 33918 ft 447 kts 354°
2026-05-04 22:21 38.31270 -3.60899 34040 ft 454 kts 354°
2026-05-04 22:21 38.37557 -3.60343 34019 ft 449 kts 355°
2026-05-04 22:22 38.43769 -3.59736 34028 ft 447 kts 355°
2026-05-04 22:22 38.49984 -3.59128 34034 ft 448 kts 355°
2026-05-04 22:23 38.56257 -3.58513 34040 ft 450 kts 355°
2026-05-04 22:23 38.62506 -3.57901 34035 ft 450 kts 355°
2026-05-04 22:24 38.68760 -3.57286 34035 ft 451 kts 355°
2026-05-04 22:24 38.75025 -3.56669 34042 ft 452 kts 355°
2026-05-04 22:25 38.81295 -3.56051 34038 ft 452 kts 355°
2026-05-04 22:25 38.87570 -3.55431 34030 ft 452 kts 355°
2026-05-04 22:26 38.93848 -3.54810 34032 ft 452 kts 355°
2026-05-04 22:26 39.00116 -3.54189 34024 ft 452 kts 355°
2026-05-04 22:27 39.06375 -3.53570 34030 ft 451 kts 355°
2026-05-04 22:27 39.12634 -3.52953 34028 ft 451 kts 355°
2026-05-04 22:28 39.18887 -3.52335 34027 ft 451 kts 355°
2026-05-04 22:28 39.25183 -3.51712 34027 ft 451 kts 355°
2026-05-04 22:29 39.31439 -3.51091 34026 ft 451 kts 355°
2026-05-04 22:29 39.37708 -3.50467 34021 ft 452 kts 355°
2026-05-04 22:30 39.43982 -3.49842 34021 ft 453 kts 355°
2026-05-04 22:30 39.50264 -3.49215 34016 ft 453 kts 355°
2026-05-04 22:31 39.56566 -3.48584 34020 ft 454 kts 355°
2026-05-04 22:31 39.62881 -3.47948 34011 ft 455 kts 355°
2026-05-04 22:32 39.69202 -3.47306 34010 ft 456 kts 355°
2026-05-04 22:32 39.75543 -3.46661 34014 ft 457 kts 355°
2026-05-04 22:33 39.81904 -3.45796 34001 ft 463 kts 359°
2026-05-04 22:33 39.87249 -3.44708 34013 ft 465 kts
2026-05-04 22:34 39.93635 -3.43345 34015 ft 465 kts
2026-05-04 22:34 40.00039 -3.42022 34012 ft 465 kts
2026-05-04 22:35 40.06435 -3.40732 34021 ft 464 kts
2026-05-04 22:35 40.12833 -3.39451 34014 ft 465 kts
2026-05-04 22:36 40.19222 -3.38167 34009 ft 465 kts
2026-05-04 22:36 40.25621 -3.36877 34005 ft 465 kts
2026-05-04 22:37 40.32013 -3.35585 34028 ft 465 kts
2026-05-04 22:37 40.38402 -3.34292 34025 ft 465 kts
2026-05-04 22:38 40.44798 -3.32995 34024 ft 465 kts
2026-05-04 22:38 40.51146 -3.31705 34024 ft 465 kts
2026-05-04 22:39 40.57537 -3.30404 34000 ft 465 kts
2026-05-04 22:39 40.63977 -3.29090 34002 ft 465 kts
2026-05-04 22:40 40.70327 -3.27792 34013 ft 465 kts
2026-05-04 22:40 40.76716 -3.26483 34018 ft 465 kts
2026-05-04 22:41 40.83149 -3.25163 34027 ft 465 kts
2026-05-04 22:41 40.89513 -3.23813 34026 ft 467 kts
2026-05-04 22:42 40.95915 -3.22364 34029 ft 467 kts
2026-05-04 22:42 41.02331 -3.20919 34032 ft 467 kts
2026-05-04 22:43 41.08742 -3.19482 34042 ft 468 kts
2026-05-04 22:43 41.15170 -3.18027 34040 ft 469 kts
2026-05-04 22:44 41.21603 -3.16567 34037 ft 469 kts
2026-05-04 22:44 41.28035 -3.15105 34050 ft 469 kts
2026-05-04 22:45 41.34472 -3.13640 34045 ft 469 kts
2026-05-04 22:45 41.44138 -3.11433 34038 ft 470 kts
2026-05-04 22:46 41.50574 -3.09961 34047 ft 469 kts
2026-05-04 22:46 41.57012 -3.08502 34040 ft 469 kts
2026-05-04 22:47 41.63445 -3.07048 34045 ft 469 kts
2026-05-04 22:47 41.69871 -3.05590 34046 ft 468 kts
2026-05-04 22:48 41.76293 -3.04126 34054 ft 468 kts
2026-05-04 22:48 41.82715 -3.02650 34044 ft 468 kts
2026-05-04 22:49 41.89102 -3.01177 34053 ft 469 kts
2026-05-04 22:49 41.95533 -2.99692 34044 ft 469 kts
2026-05-04 22:50 42.01971 -2.98203 34047 ft 470 kts
2026-05-04 22:50 42.08421 -2.96708 34050 ft 470 kts
2026-05-04 22:51 42.14871 -2.95210 34042 ft 471 kts
2026-05-04 22:51 42.21320 -2.93709 34038 ft 470 kts
2026-05-04 22:52 42.27778 -2.92204 34039 ft 470 kts
2026-05-04 22:52 42.34222 -2.90697 34043 ft 470 kts
2026-05-04 22:53 42.40663 -2.89188 34044 ft 470 kts
2026-05-04 22:53 42.47106 -2.87795 34047 ft 467 kts
2026-05-04 22:54 42.53574 -2.87124 34056 ft 466 kts 358°
2026-05-04 22:54 42.60050 -2.86625 34050 ft 467 kts 358°
2026-05-04 22:55 42.66543 -2.86071 34056 ft 468 kts 358°
2026-05-04 22:55 42.73062 -2.85463 34051 ft 470 kts 359°
2026-05-04 22:56 42.79594 -2.84834 34057 ft 471 kts 359°
2026-05-04 22:56 42.86135 -2.84202 34051 ft 472 kts 359°
2026-05-04 22:57 42.92683 -2.83570 34060 ft 472 kts 359°
2026-05-04 22:57 42.99232 -2.82938 34045 ft 472 kts 359°
2026-05-04 22:58 43.05789 -2.82304 34056 ft 472 kts 359°
2026-05-04 22:58 43.12342 -2.81668 34057 ft 472 kts 359°
2026-05-04 22:59 43.18893 -2.81031 34047 ft 471 kts 359°
2026-05-04 22:59 43.25425 -2.80397 34055 ft 470 kts 359°
2026-05-04 23:00 43.31952 -2.79761 34052 ft 470 kts 359°
2026-05-04 23:00 43.38486 -2.79124 34044 ft 471 kts 359°
2026-05-04 23:01 43.45027 -2.78489 34047 ft 473 kts 359°
2026-05-04 23:01 43.51599 -2.77839 34055 ft 474 kts 359°
2026-05-04 23:02 43.58177 -2.77190 34036 ft 474 kts 360°
2026-05-04 23:02 43.64723 -2.76545 34032 ft 475 kts 360°
2026-05-04 23:03 43.71309 -2.75894 34025 ft 475 kts 360°
2026-05-04 23:03 43.77896 -2.75242 34025 ft 474 kts
2026-05-04 23:04 43.84469 -2.74589 34022 ft 473 kts
2026-05-04 23:04 43.91028 -2.73934 34023 ft 473 kts
2026-05-04 23:05 43.97559 -2.72730 34021 ft 474 kts
2026-05-04 23:05 44.04066 -2.71205 34025 ft 474 kts
2026-05-04 23:06 44.10559 -2.69688 34024 ft 473 kts
2026-05-04 23:06 44.17050 -2.68221 34022 ft 472 kts
2026-05-04 23:07 44.23545 -2.66776 34009 ft 472 kts
2026-05-04 23:07 44.30028 -2.65334 34022 ft 472 kts
2026-05-04 23:08 44.36519 -2.63886 34011 ft 472 kts
2026-05-04 23:08 44.43003 -2.62434 34020 ft 472 kts
2026-05-04 23:09 44.49500 -2.60976 34019 ft 473 kts
2026-05-04 23:09 44.55948 -2.59525 34023 ft 473 kts
2026-05-04 23:10 44.62449 -2.58059 34013 ft 473 kts
2026-05-04 23:10 44.68959 -2.56588 34019 ft 474 kts
2026-05-04 23:11 44.75464 -2.55114 34007 ft 474 kts
2026-05-04 23:11 44.81981 -2.53634 34011 ft 474 kts
2026-05-04 23:12 44.88491 -2.52153 34003 ft 474 kts
2026-05-04 23:12 44.95001 -2.50668 34011 ft 474 kts
2026-05-04 23:13 45.01508 -2.49180 34003 ft 474 kts
2026-05-04 23:13 45.08018 -2.47689 34011 ft 474 kts
2026-05-04 23:14 45.14527 -2.46194 34003 ft 473 kts
2026-05-04 23:14 45.21027 -2.44697 34003 ft 473 kts
2026-05-04 23:15 45.27526 -2.43198 33996 ft 473 kts
2026-05-04 23:15 45.34030 -2.41694 34002 ft 473 kts
2026-05-04 23:16 45.40525 -2.40188 33998 ft 473 kts
2026-05-04 23:16 45.47071 -2.38669 34085 ft 481 kts
2026-05-04 23:17 45.50387 -2.37898 34211 ft 485 kts
2026-05-04 23:17 45.52590 -2.37384 34347 ft 485 kts
2026-05-04 23:17 45.55920 -2.36607 34659 ft 484 kts
2026-05-04 23:17 45.59232 -2.35832 35031 ft 480 kts
2026-05-04 23:18 45.62523 -2.35062 35370 ft 478 kts
2026-05-04 23:18 45.65800 -2.34294 35660 ft 476 kts
2026-05-04 23:18 45.70129 -2.33280 35978 ft 476 kts
2026-05-04 23:18 45.72339 -2.32762 35995 ft 479 kts
2026-05-04 23:19 45.78976 -2.31204 35998 ft 487 kts
2026-05-04 23:19 45.85717 -2.29616 36001 ft 494 kts
2026-05-04 23:20 45.92463 -2.28021 35989 ft 495 kts
2026-05-04 23:20 45.99271 -2.26408 35990 ft 496 kts
2026-05-04 23:21 46.06072 -2.24793 35982 ft 495 kts
2026-05-04 23:21 46.12856 -2.23151 35986 ft 494 kts
2026-05-04 23:22 46.19620 -2.21496 35979 ft 492 kts
2026-05-04 23:22 46.26368 -2.19843 35981 ft 491 kts
2026-05-04 23:23 46.33088 -2.18196 35978 ft 489 kts
2026-05-04 23:23 46.39790 -2.16551 35973 ft 488 kts
2026-05-04 23:24 46.46479 -2.14904 35969 ft 487 kts
2026-05-04 23:24 46.53163 -2.13255 35969 ft 487 kts
2026-05-04 23:25 46.59833 -2.11604 35968 ft 487 kts
2026-05-04 23:25 46.66513 -2.09947 35971 ft 487 kts
2026-05-04 23:26 46.73192 -2.08286 35964 ft 487 kts
2026-05-04 23:26 46.79875 -2.06620 35967 ft 488 kts
2026-05-04 23:27 46.86571 -2.04947 35960 ft 488 kts
2026-05-04 23:27 46.93265 -2.03269 35962 ft 488 kts
2026-05-04 23:28 46.99890 -2.01606 35963 ft 481 kts 11°
2026-05-04 23:28 47.06320 -1.99472 35962 ft 471 kts 15°
2026-05-04 23:29 47.12643 -1.96968 35959 ft 470 kts 16°
2026-05-04 23:29 47.18955 -1.94458 35960 ft 470 kts 16°
2026-05-04 23:30 47.25290 -1.91992 35965 ft 471 kts 15°
2026-05-04 23:30 47.31648 -1.89541 35964 ft 473 kts 15°
2026-05-04 23:31 47.38031 -1.87082 35967 ft 475 kts 15°
2026-05-04 23:31 47.44431 -1.84608 35963 ft 476 kts 15°
2026-05-04 23:32 47.50809 -1.82136 35960 ft 478 kts 15°
2026-05-04 23:32 47.57253 -1.79630 35958 ft 479 kts 15°
2026-05-04 23:33 47.63702 -1.77116 35956 ft 480 kts 15°
2026-05-04 23:33 47.70154 -1.74595 35957 ft 480 kts 15°
2026-05-04 23:34 47.76612 -1.72065 35956 ft 480 kts 15°
2026-05-04 23:34 47.83055 -1.69534 35964 ft 479 kts 16°
2026-05-04 23:35 47.89498 -1.66997 35960 ft 478 kts 16°
2026-05-04 23:35 47.95931 -1.64456 35965 ft 478 kts 15°
2026-05-04 23:36 48.02356 -1.61913 35969 ft 477 kts 16°
2026-05-04 23:36 48.08774 -1.59366 35966 ft 477 kts 16°
2026-05-04 23:37 48.15183 -1.56816 35967 ft 477 kts 16°
2026-05-04 23:37 48.21589 -1.54260 35962 ft 477 kts 16°
2026-05-04 23:38 48.27999 -1.51697 35968 ft 476 kts 16°
2026-05-04 23:38 48.34404 -1.49128 35968 ft 477 kts 16°
2026-05-04 23:39 48.40813 -1.46551 35967 ft 477 kts 16°
2026-05-04 23:39 48.47230 -1.43965 35967 ft 477 kts 16°
2026-05-04 23:40 48.53649 -1.41370 35971 ft 478 kts 16°
2026-05-04 23:40 48.60069 -1.38769 35972 ft 478 kts 16°
2026-05-04 23:41 48.66496 -1.36158 35976 ft 478 kts 16°
2026-05-04 23:41 48.72932 -1.33536 35977 ft 479 kts 16°
2026-05-04 23:42 48.79366 -1.30908 35973 ft 479 kts 16°
2026-05-04 23:42 48.85768 -1.28286 35981 ft 480 kts 16°
2026-05-04 23:43 48.92213 -1.25639 35976 ft 480 kts 16°
2026-05-04 23:43 48.98665 -1.22983 35975 ft 480 kts 16°
2026-05-04 23:44 49.05155 -1.20303 35981 ft 480 kts 16°
2026-05-04 23:44 49.11565 -1.17650 35977 ft 480 kts 16°
2026-05-04 23:45 49.18014 -1.14973 35976 ft 480 kts 16°
2026-05-04 23:45 49.24460 -1.12290 35979 ft 480 kts 16°
2026-05-04 23:46 49.30910 -1.09599 35984 ft 480 kts 16°
2026-05-04 23:46 49.37352 -1.06903 35987 ft 480 kts 16°
2026-05-04 23:47 49.43795 -1.04199 35985 ft 480 kts 16°
2026-05-04 23:47 49.50227 -1.01493 35987 ft 479 kts 16°
2026-05-04 23:48 49.56651 -0.98783 35987 ft 479 kts 16°
2026-05-04 23:48 49.63075 -0.96064 35994 ft 478 kts 16°
2026-05-04 23:49 49.69485 -0.93345 35990 ft 478 kts 16°
2026-05-04 23:49 49.75909 -0.90698 35988 ft 477 kts 11°
2026-05-04 23:50 49.82549 -0.89538 35311 ft 486 kts
2026-05-04 23:50 49.85907 -0.89139 34716 ft 484 kts
2026-05-04 23:50 49.89271 -0.88724 34056 ft 486 kts
2026-05-04 23:51 49.92644 -0.88270 33220 ft 488 kts
2026-05-04 23:51 49.96020 -0.87786 32656 ft 484 kts
2026-05-04 23:51 49.99359 -0.87298 32147 ft 480 kts
2026-05-04 23:51 50.02668 -0.86819 31628 ft 476 kts
2026-05-04 23:52 50.05946 -0.86353 31126 ft 472 kts
2026-05-04 23:52 50.09205 -0.85895 30639 ft 468 kts
2026-05-04 23:52 50.12437 -0.85440 30164 ft 464 kts
2026-05-04 23:52 50.15644 -0.84987 29629 ft 461 kts
2026-05-04 23:53 50.18816 -0.84537 29107 ft 456 kts
2026-05-04 23:53 50.21956 -0.84091 28626 ft 450 kts
2026-05-04 23:53 50.25055 -0.83649 28148 ft 445 kts
2026-05-04 23:53 50.28127 -0.83211 27650 ft 441 kts
2026-05-04 23:54 50.31163 -0.82777 27176 ft 436 kts
2026-05-04 23:54 50.34174 -0.82345 26693 ft 432 kts
2026-05-04 23:54 50.37153 -0.81912 26230 ft 428 kts
2026-05-04 23:54 50.40105 -0.81479 25763 ft 424 kts
2026-05-04 23:55 50.43029 -0.81049 25302 ft 420 kts
2026-05-04 23:55 50.45927 -0.80623 24847 ft 416 kts
2026-05-04 23:55 50.51644 -0.79783 23941 ft 409 kts
2026-05-04 23:56 50.54465 -0.79368 23475 ft 406 kts
2026-05-04 23:56 50.57270 -0.78956 22949 ft 403 kts
2026-05-04 23:56 50.60051 -0.78546 22472 ft 399 kts
2026-05-04 23:56 50.62800 -0.78141 22020 ft 395 kts
2026-05-04 23:57 50.65521 -0.77748 21575 ft 391 kts
2026-05-04 23:57 50.68220 -0.77360 21125 ft 388 kts
2026-05-04 23:57 50.70891 -0.76977 20687 ft 384 kts
2026-05-04 23:57 50.73544 -0.76595 20250 ft 381 kts
2026-05-04 23:58 50.76177 -0.76215 19814 ft 378 kts
2026-05-04 23:58 50.78783 -0.75839 19387 ft 375 kts
2026-05-04 23:58 50.81360 -0.75344 19061 ft 369 kts 15°
2026-05-04 23:58 50.83758 -0.73979 19053 ft 367 kts 24°
2026-05-04 23:59 50.86128 -0.72425 19023 ft 368 kts 24°
2026-05-04 23:59 50.88484 -0.70859 19021 ft 368 kts 24°
2026-05-04 23:59 50.90846 -0.69295 19017 ft 368 kts 24°
2026-05-04 23:59 50.93151 -0.67780 19019 ft 369 kts 24°
2026-05-05 00:00 50.95527 -0.66228 19025 ft 369 kts 24°
2026-05-05 00:00 50.96328 -0.65706 19025 ft 369 kts 24°
2026-05-05 00:00 51.00283 -0.63137 19022 ft 370 kts 23°
2026-05-05 00:00 51.02668 -0.61589 19023 ft 370 kts 23°
2026-05-05 00:01 51.05050 -0.60043 19023 ft 370 kts 24°
2026-05-05 00:01 51.06627 -0.59019 19026 ft 370 kts 23°
2026-05-05 00:01 51.06927 -0.58824 19025 ft 370 kts 23°
2026-05-05 00:02 51.09374 -0.57233 19027 ft 370 kts 23°
2026-05-05 00:02 51.11759 -0.55681 19026 ft 370 kts 23°
2026-05-05 00:02 51.14141 -0.54129 19025 ft 370 kts 23°
2026-05-05 00:02 51.16528 -0.52572 19022 ft 371 kts 23°
2026-05-05 00:03 51.18913 -0.51014 19023 ft 371 kts 23°
2026-05-05 00:03 51.21300 -0.49454 19026 ft 370 kts 23°
2026-05-05 00:03 51.23676 -0.47899 19016 ft 365 kts 23°
2026-05-05 00:03 51.25979 -0.46391 19013 ft 351 kts 23°
2026-05-05 00:04 51.27460 -0.45420 19002 ft 343 kts 23°
2026-05-05 00:04 51.29625 -0.44000 19014 ft 331 kts 23°
2026-05-05 00:04 51.31743 -0.42608 19018 ft 329 kts 23°
2026-05-05 00:04 51.33862 -0.41213 19030 ft 332 kts 23°
2026-05-05 00:05 51.36010 -0.39796 19034 ft 335 kts 23°
2026-05-05 00:05 51.38176 -0.38369 18846 ft 338 kts 23°
2026-05-05 00:05 51.40342 -0.36940 18606 ft 335 kts 23°
2026-05-05 00:05 51.42492 -0.35523 18375 ft 333 kts 23°
2026-05-05 00:06 51.44612 -0.34074 18110 ft 331 kts 25°
2026-05-05 00:06 51.46686 -0.32517 17851 ft 326 kts 26°
2026-05-05 00:06 51.48718 -0.30943 17522 ft 324 kts 27°
2026-05-05 00:06 51.50743 -0.29368 17149 ft 323 kts 27°
2026-05-05 00:07 51.52762 -0.27803 16783 ft 322 kts 26°
2026-05-05 00:07 51.54773 -0.26249 16442 ft 320 kts 26°
2026-05-05 00:07 51.56762 -0.24717 16031 ft 314 kts 26°
2026-05-05 00:07 51.58728 -0.23205 15464 ft 314 kts 26°
2026-05-05 00:08 51.60637 -0.21736 14951 ft 313 kts 26°
2026-05-05 00:08 51.62596 -0.20228 14459 ft 311 kts 26°
2026-05-05 00:08 51.64536 -0.18735 13988 ft 308 kts 26°
2026-05-05 00:08 51.66468 -0.17245 13526 ft 309 kts 26°
2026-05-05 00:09 51.68402 -0.15754 13228 ft 305 kts 25°
2026-05-05 00:09 51.70296 -0.14292 12792 ft 300 kts 25°
2026-05-05 00:09 51.72125 -0.12879 12226 ft 300 kts 25°
2026-05-05 00:09 51.74006 -0.11425 11707 ft 299 kts 25°
2026-05-05 00:10 51.75880 -0.10000 11199 ft 297 kts 23°
2026-05-05 00:10 51.77764 -0.08667 10716 ft 295 kts 22°
2026-05-05 00:10 51.79642 -0.07368 10246 ft 292 kts 22°
2026-05-05 00:10 51.81504 -0.06081 9764 ft 290 kts 22°
2026-05-05 00:11 51.83310 -0.04825 9658 ft 274 kts 22°
2026-05-05 00:11 51.85031 -0.03623 9568 ft 265 kts 22°
2026-05-05 00:11 51.86704 -0.02452 9440 ft 262 kts 22°
2026-05-05 00:11 51.88374 -0.01282 9255 ft 263 kts 22°
2026-05-05 00:12 51.90056 -0.00100 8990 ft 263 kts 22°
2026-05-05 00:12 51.91729 0.01076 8731 ft 261 kts 22°
2026-05-05 00:12 51.93385 0.02242 8544 ft 256 kts 22°
2026-05-05 00:12 51.94996 0.03378 8403 ft 250 kts 22°
2026-05-05 00:13 51.96588 0.04502 8149 ft 249 kts 22°
2026-05-05 00:13 51.98149 0.05604 8065 ft 240 kts 22°
2026-05-05 00:13 51.99650 0.06722 7887 ft 236 kts 30°
2026-05-05 00:13 52.01003 0.08112 7835 ft 224 kts 31°
2026-05-05 00:14 52.02284 0.09445 7672 ft 215 kts 31°
2026-05-05 00:14 52.03524 0.10776 7393 ft 213 kts 38°
2026-05-05 00:14 52.04273 0.12799 7058 ft 213 kts 83°
2026-05-05 00:14 52.03948 0.15044 6971 ft 207 kts 128°
2026-05-05 00:15 52.02760 0.16294 6886 ft 210 kts 173°
2026-05-05 00:15 52.01348 0.15890 6797 ft 211 kts 214°
2026-05-05 00:15 52.00182 0.14451 6700 ft 211 kts 220°
2026-05-05 00:15 51.99038 0.12964 6579 ft 211 kts 220°
2026-05-05 00:16 51.97892 0.11469 6455 ft 211 kts 221°
2026-05-05 00:16 51.96746 0.09972 6321 ft 211 kts 221°
2026-05-05 00:16 51.95603 0.08477 6205 ft 211 kts 221°
2026-05-05 00:16 51.94477 0.07008 6039 ft 205 kts 221°
2026-05-05 00:17 51.93365 0.05557 5703 ft 205 kts 221°
2026-05-05 00:17 51.92254 0.04104 5389 ft 205 kts 220°
2026-05-05 00:17 51.91144 0.02650 5084 ft 205 kts 220°
2026-05-05 00:17 51.89846 0.01772 4692 ft 208 kts 183°
2026-05-05 00:18 51.88406 0.01776 4411 ft 206 kts 181°
2026-05-05 00:18 51.86978 0.01786 4123 ft 204 kts 181°
2026-05-05 00:18 51.85587 0.01798 4004 ft 197 kts 181°
2026-05-05 00:18 51.84209 0.01810 3896 ft 199 kts 181°
2026-05-05 00:19 51.82817 0.01820 3780 ft 201 kts 181°
2026-05-05 00:19 51.81429 0.01828 3537 ft 199 kts 181°
2026-05-05 00:19 51.80043 0.01831 3226 ft 199 kts 181°
2026-05-05 00:19 51.78692 0.01833 3027 ft 193 kts 180°
2026-05-05 00:20 51.77452 0.02412 2798 ft 187 kts 138°
2026-05-05 00:20 51.76900 0.04190 2537 ft 178 kts 86°
2026-05-05 00:20 51.77350 0.05946 2305 ft 169 kts 49°
2026-05-05 00:20 51.78105 0.07382 2231 ft 165 kts 48°
2026-05-05 00:21 51.78857 0.08807 2156 ft 168 kts 46°
2026-05-05 00:21 51.79693 0.10193 2053 ft 175 kts 43°
2026-05-05 00:21 51.80570 0.11538 1988 ft 172 kts 43°
2026-05-05 00:21 51.81436 0.12845 1988 ft 169 kts 42°
2026-05-05 00:22 51.82300 0.14146 1865 ft 173 kts 42°
2026-05-05 00:22 51.83166 0.15451 1642 ft 165 kts 42°
2026-05-05 00:22 51.83987 0.16687 1426 ft 158 kts 43°
2026-05-05 00:22 51.84763 0.17856 1188 ft 149 kts 43°
2026-05-05 00:23 51.85504 0.18974 985 ft 145 kts 43°
2026-05-05 00:23 51.86249 0.20085 773 ft 147 kts 43°
2026-05-05 00:23 51.86998 0.21217 573 ft 148 kts 45°
2026-05-05 00:23 51.87741 0.22341 375 ft 145 kts 44°
2026-05-05 00:24 51.88411 0.23347 352 ft 106 kts 43°
2026-05-05 00:24 51.88811 0.23948 335 ft 62 kts 43°
2026-05-05 00:24 51.89006 0.24254 338 ft 27 kts 51°
2026-05-05 00:24 51.89093 0.24505 336 ft 25 kts 67°
2026-05-05 00:25 51.89139 0.24689 347 ft 12 kts 68°
2026-05-05 00:25 51.89159 0.24772 344 ft 6 kts 70°
2026-05-05 00:25 51.89166 0.24838 348 ft 6 kts 103°
2026-05-05 00:25 51.89153 0.24902 350 ft 6 kts 105°
2026-05-05 00:26 51.89165 0.24962 351 ft 6 kts 49°
2026-05-05 00:26 51.89194 0.25009 348 ft 6 kts 44°
2026-05-05 00:26 51.89219 0.25059 352 ft 6 kts 56°
2026-05-05 00:26 51.89240 0.25113 351 ft 6 kts 63°
2026-05-05 00:27 51.89234 0.25174 353 ft 7 kts 121°
2026-05-05 00:27 51.89200 0.25241 350 ft 8 kts 132°
2026-05-05 00:27 51.89168 0.25296 348 ft 8 kts 133°
2026-05-05 00:27 51.89132 0.25359 348 ft 8 kts 133°
2026-05-05 00:28 51.89098 0.25416 356 ft 6 kts 134°
2026-05-05 00:28 51.89066 0.25421 351 ft 5 kts 202°
2026-05-05 00:28 51.89041 0.25391 348 ft 4 kts 219°
2026-05-05 00:28 51.89031 0.25376 357 ft 1 kts 223°
2026-05-05 00:29 51.89026 0.25369 354 ft 1 kts 223°
2026-05-05 00:29 51.89024 0.25366 355 ft 0 kts 223°